Flag for Netherlands Weather past 2 weeks in The Hague, Netherlands

Now
63 °F

Overcast.


Feels Like: 63 °F
Forecast: 61 / 65 °F
Wind: 13 mph from Southwest

Location: Rotterdam Zestienhoven Airport

Current Time: Aug 30, 2014 at 1:14:45 AM

Latest Report: Aug 30, 2014 at 12:55 AM


Visibility: N/A

Pressure: 29.95 "Hg

Humidity: 77%

Dew point: 55 °F

Location of The HagueLocation

Historic Weather in The Hague — Graph

°F

The Hague temperature yesterday

Maximum temperature yesterday: 68 °F (at 12:55 PM)
Minimum temperature yesterday: 59 °F (at 1:55 AM)
Average temperature yesterday: 63 °F

Past Weeks' High & Low Weather Summary

 TemperatureHumidityPressure
High70 °F (Aug 27, 4:25 PM)100% (Aug 15, 2:25 AM)30.09 "Hg (Aug 15, 2:25 AM)
Low43 °F (Aug 27, 6:55 AM)49% (Aug 27, 1:55 PM)29.62 "Hg (Aug 18, 4:25 AM)
Average58 °F81%29.89 "Hg
* Reported Aug 14 11:25 PM — Aug 29 11:55 PM, The Hague, Weather by CustomWeather, © 2014

Note: Actual official high and low records may vary slightly from our data, if they occured in-between our weather recording intervals... More about our weather records

Advertising

The Hague weather history for previous 24 hours

 ConditionsComfort  
Time TempWeatherWind HumidityBarometerVisibility
11:55 PM
Aug 29
63 °FPartly cloudy.14 mph77%29.95 "HgN/A
11:25 PM63 °FPassing clouds.14 mph77%29.95 "HgN/A
10:55 PM63 °FPassing clouds.14 mph77%29.95 "HgN/A
8:55 PM63 °FPassing clouds.18 mph73%29.95 "HgN/A
8:25 PM64 °FPassing clouds.20 mph73%29.95 "HgN/A
7:55 PM64 °FPassing clouds.16 mph73%29.95 "HgN/A
7:25 PM64 °FClear.16 mph73%29.95 "HgN/A
6:55 PM64 °FClear.15 mph73%29.95 "HgN/A
6:25 PM66 °FClear.17 mph73%29.95 "HgN/A
5:55 PM66 °FScattered clouds.13 mph73%29.95 "HgN/A
5:25 PM68 °FPassing clouds.18 mph69%29.95 "HgN/A
4:55 PM68 °FPassing clouds.17 mph64%29.95 "HgN/A
4:25 PM68 °FPassing clouds.20 mph64%29.95 "HgN/A
3:55 PM68 °FScattered clouds.20 mph64%29.95 "HgN/A
3:25 PM68 °FBroken clouds.18 mph69%29.95 "HgN/A
2:55 PM68 °FPassing clouds.21 mph64%29.95 "HgN/A
2:25 PM68 °FPartly sunny.15 mph64%29.95 "HgN/A
1:55 PM68 °FPassing clouds.17 mph64%29.95 "HgN/A
1:25 PM66 °FBroken clouds.17 mph68%29.95 "HgN/A
12:55 PM68 °FBroken clouds.17 mph69%29.95 "HgN/A
12:25 PM64 °FPartly sunny.16 mph73%29.95 "HgN/A
11:55 AM66 °FBroken clouds.18 mph68%29.95 "HgN/A
11:25 AM66 °FBroken clouds.16 mph78%29.95 "HgN/A
10:55 AM64 °FPartly sunny.13 mph78%29.95 "HgN/A
10:25 AM64 °FBroken clouds.13 mph83%29.95 "HgN/A
9:55 AM63 °FScattered clouds.12 mph88%29.95 "HgN/A
9:25 AM63 °FPassing clouds.10 mph83%29.95 "HgN/A
8:55 AM61 °FScattered clouds.12 mph94%29.95 "HgN/A
8:25 AM61 °FScattered clouds.9 mph88%29.95 "HgN/A
7:55 AM59 °FPassing clouds.12 mph94%29.92 "HgN/A
7:25 AM59 °FPassing clouds.10 mph94%29.92 "HgN/A
6:55 AM59 °FCool.10 mph94%29.92 "HgN/A
6:25 AM59 °FCool.10 mph94%29.92 "HgN/A
5:55 AM59 °FPassing clouds.10 mph94%29.92 "HgN/A
5:25 AM59 °FPassing clouds.9 mph94%29.92 "HgN/A
4:55 AM59 °FPassing clouds.9 mph94%29.92 "HgN/A
4:25 AM59 °FPassing clouds.12 mph94%29.92 "HgN/A
3:55 AM59 °FClear.9 mph94%29.92 "HgN/A
2:55 AM61 °FPassing clouds.10 mph88%29.92 "HgN/A
2:25 AM61 °FCool.9 mph88%29.92 "HgN/A
1:55 AM59 °FClear.9 mph94%29.92 "HgN/A
1:25 AM61 °FClear.10 mph88%29.92 "HgN/A
Weather by CustomWeather, © 2014

See weather overviewHow to use our weather pages